Find Starlink 32107

NORAD ID: 59694 Int'l Des: 2024-086 Owner: SPXS Country: US Constellation: starlink operational
LEOCIRCULAR

当前视图

正在加载3D地球...

About Starlink 32107

Starlink 32107 (NORAD 59694) is a starlink constellation satellite (v2 mini) launched May 8, 2024 by SPXS of US. It operates in LEO, CIRCULAR orbit with a mass of 730.00 kg.

即将过境

Passes for default location (London). Set your location on the main map for personalized predictions.

高度历史

Loading altitude history...

两行轨道根数

1 59694U 24086N 26263.11275365 -.00000089 00000-0 63146-5 0 9995
2 59694 43.0060 42.1535 0001609 272.7111 87.3557 15.27576893133842
Epoch: Sep 20, 2026 • Age: 14 hours

当前状态

高度 492.5 km
远地点 / 近地点 N/A
速度 7.62 km/s
星下点 -35.78°S, 25.09°E
发射日期 May 8, 2024
运行时间 2.3 years
类型 internet

技术详情

分类 Payload
质量 730.00 kg
干质量 700.00 kg
长度 0.30 m
跨度 29.00 m
形状 ? Box + pan
制造商 SPXS
平台类型 Starlink V2M
阶段状态 In Orbit
所有者/国家 SPXS/US

Most Searched